This demonstration page uses our WeatherBlox Daily Observations layout. Learn more.

Left ArrowRight Arrow

38.20091, -84.87328

Hourly Observations for March 21, 2022

Temp ( °F °C ) Dew Point ( °F °C ) Humidity (%) Winds ( mph kmh ) Pressure ( in mb ) Visibility ( mi km ) Precip ( " mm )
12:53 am 00:53 Clear 41 5 N/A N/A Calm 30.23 1024 10 16 0.00 0.00
1:53 am 01:53 Clear 39 4 N/A N/A Calm 30.22 1023 10 16 0.00 0.00
2:53 am 02:53 Clear 39 4 N/A N/A Calm 30.22 1024 10 16 0.00 0.00
3:53 am 03:53 Clear 39 4 N/A N/A Calm 30.22 1024 10 16 0.00 0.00
4:53 am 04:53 Clear 37 3 N/A N/A Calm 30.22 1023 10 16 0.00 0.00
5:53 am 05:53 Clear 36 2 N/A N/A Calm 30.24 1024 10 16 0.00 0.00
6:53 am 06:53 Clear 37 2.8 32 0 82 82 Calm 30.25 1024 10 16 0.00 0.00
7:53 am 07:53 Sunny 34 1.1 32 0 92 92 Calm 30.27 1025 10 16 0.00 0.00
8:53 am 08:53 Sunny 41 5 37 2.8 86 86 Calm 30.29 1026 10 16 0.00 0.00
9:53 am 09:53 Sunny 53 11.7 36 2.2 52 52 SSW 6 9 30.28 1026 10 16 0.00 0.00
10:53 am 10:53 Sunny 61 16.1 38 3.3 43 43 SSW 9 15 30.29 1026 10 16 0.00 0.00
11:53 am 11:53 Sunny 66 18.9 34 1.1 30 30 SSW 12 19 30.28 1025 10 16 0.00 0.00
12:53 pm 12:53 Sunny 68 20 32 0 26 26 SSW 9 15 30.26 1025 10 16 0.00 0.00
1:53 pm 13:53 Sunny 70 21.1 31 -0.6 23 23 S 9 15 30.23 1024 10 16 0.00 0.00
2:53 pm 14:53 Sunny 70 21.1 31 -0.6 23 23 SSE 7 11 30.19 1023 10 16 0.00 0.00
3:53 pm 15:53 Sunny 70 21.1 31 -0.6 23 23 S 7 11 30.16 1021 10 16 0.00 0.00
4:53 pm 16:53 Sunny 71 21.7 30 -1.1 22 22 S 8 13 30.12 1020 10 16 0.00 0.00
5:53 pm 17:53 Sunny 69 20.6 30 -1.1 23 23 SSE 8 13 30.09 1019 10 16 0.00 0.00
6:53 pm 18:53 Sunny 67 19.4 31 -0.6 26 26 SSE 8 13 30.10 1019 10 16 0.00 0.00
7:53 pm 19:53 Clear 65 18.3 31 -0.6 28 28 SSE 3 6 30.09 1019 10 16 0.00 0.00
8:53 pm 20:53 Clear 56 13.3 40 4.4 55 55 Calm 30.08 1019 10 16 0.00 0.00
9:53 pm 21:53 Clear 54 12.2 39 3.9 57 57 Calm 30.08 1019 10 16 0.00 0.00
10:53 pm 22:53 Clear 54 12.2 37 2.8 53 53 E 3 6 30.06 1018 10 16 0.00 0.00
11:53 pm 23:53 Clear 56 13.3 38 3.3 51 51 E 3 6 30.06 1018 10 16 0.00 0.00

Powered by AerisWeather